Bodo, Norway

6:32 AM CEST on June 24, 2018 (GMT +0200)
Bodo

Weather History for ENBO - July, 2009

Change the Weather History Date:

Thursday, July 16, 2009

  Actual Average Record
Temperature  
Mean Temperature 54 °F -  
Max Temperature 56 °F 59 °F 78 °F (1997)
Min Temperature 52 °F 50 °F 48 °F (1996)
Degree Days  
Heating Degree Days 11    
Growing Degree Days 4 (Base 50)    
Moisture  
Dew Point 50 °F    
Average Humidity 85    
Maximum Humidity 88    
Minimum Humidity 77    
Precipitation  
Precipitation 0.00 in 0.12 in - ()
Sea Level Pressure  
Sea Level Pressure 29.90 in    
Wind  
Wind Speed 3 mph ()    
Max Wind Speed 9 mph    
Max Gust Speed -    
Visibility 7.1 miles    
Events Rain    
Averages and records for this station are not official NWS values.
T = Trace of Precipitation, MM = Missing Value Source: Averaged Metar Reports

Daily Weather History Graph

Daily Weather History Graph

Search for Another Location

Airport or City:

Astronomy

Jul. 16, 2009 Rise Set
Actual Time 2:00 AM CEST 12:09 AM CEST
Civil Twilight Sun does not set Sun does not set
Nautical Twilight Sun does not set Sun does not set
Astronomical Twilight Sun does not set Sun does not set
Moon 9:48 PM CEST (7/16) 5:36 PM CEST (7/16)
Length of Visible Light 24h 00m
Length of Day
22h 09m
Last Quarter, 39% of the Moon is Illuminated
Jul 16
Last Quarter
Jul 22
New
Jul 29
First Quarter
Aug 6
Full
Aug 13
Last Quarter

Hourly Weather History & Observations

Time (CEST) Temp. Dew Point Humidity Pressure Visibility Wind Dir Wind Speed Gust Speed Precip Events Conditions
12:50 AM 53.6 °F 48.2 °F 82% 29.92 in 6.2 mi SE 1.2 mph - N/A   Mostly Cloudy
1:50 AM 53.6 °F 50.0 °F 88% 29.92 in 6.2 mi Calm Calm - N/A   Mostly Cloudy
2:00 AM 54 °F 49 °F 79% 29.93 in 19 mi Calm Calm - -   Partly Cloudy
2:50 AM 53.6 °F 50.0 °F 88% 29.92 in 6.2 mi Calm Calm - N/A   Mostly Cloudy
3:50 AM 53.6 °F 50.0 °F 88% 29.92 in 6.2 mi North 3.5 mph - N/A   Mostly Cloudy
4:50 AM 53.6 °F 50.0 °F 88% 29.92 in 6.2 mi NNW 3.5 mph - N/A   Mostly Cloudy
5:20 AM 53.6 °F 50.0 °F 88% 29.92 in 6.2 mi Variable 2.3 mph - N/A   Mostly Cloudy
5:50 AM 53.6 °F 50.0 °F 88% 29.92 in 6.2 mi Calm Calm - N/A   Mostly Cloudy
6:50 AM 53.6 °F 50.0 °F 88% 29.92 in 6.2 mi Calm Calm - N/A   Mostly Cloudy
7:20 AM 55.4 °F 51.8 °F 88% 29.89 in 6.2 mi Variable 1.2 mph - N/A   Mostly Cloudy
7:50 AM 55.4 °F 51.8 °F 88% 29.89 in 6.2 mi Variable 2.3 mph - N/A   Mostly Cloudy
8:00 AM 55 °F 51 °F 81% 29.91 in 16 mi West 4.5 mph - -   Partly Cloudy
8:20 AM 55.4 °F 51.8 °F 88% 29.89 in 6.2 mi Variable 2.3 mph - N/A   Partly Cloudy
8:50 AM 55.4 °F 51.8 °F 88% 29.89 in 6.2 mi NNW 3.5 mph - N/A   Mostly Cloudy
9:20 AM 55.4 °F 51.8 °F 88% 29.89 in 6.2 mi North 3.5 mph - N/A   Mostly Cloudy
9:50 AM 55.4 °F 51.8 °F 88% 29.89 in 6.2 mi NNW 3.5 mph - N/A   Mostly Cloudy
10:20 AM 55.4 °F 51.8 °F 88% 29.89 in 6.2 mi NNW 4.6 mph - N/A   Mostly Cloudy
10:50 AM 55.4 °F 51.8 °F 88% 29.89 in 6.2 mi NW 4.6 mph - N/A   Mostly Cloudy
11:20 AM 55.4 °F 51.8 °F 88% 29.89 in 6.2 mi NNW 4.6 mph - N/A   Mostly Cloudy
11:50 AM 55.4 °F 51.8 °F 88% 29.89 in 6.2 mi NNW 5.8 mph - N/A   Mostly Cloudy
12:20 PM 55.4 °F 51.8 °F 88% 29.89 in 6.2 mi NNW 4.6 mph - N/A   Mostly Cloudy
12:50 PM 55.4 °F 51.8 °F 88% 29.89 in 6.2 mi NNW 4.6 mph - N/A   Mostly Cloudy
1:20 PM 55.4 °F 51.8 °F 88% 29.89 in 6.2 mi NNW 8.1 mph - N/A   Mostly Cloudy
1:50 PM 55.4 °F 50.0 °F 82% 29.89 in 6.2 mi WNW 6.9 mph - N/A   Mostly Cloudy
2:00 PM 56 °F 51 °F 77% 29.91 in 16 mi WNW 6.7 mph - -   Partly Cloudy
2:20 PM 55.4 °F 50.0 °F 82% 29.89 in 6.2 mi West 6.9 mph - N/A   Mostly Cloudy
2:50 PM 55.4 °F 50.0 °F 82% 29.92 in 6.2 mi West 6.9 mph - N/A   Mostly Cloudy
3:20 PM 55.4 °F 51.8 °F 88% 29.89 in 6.2 mi West 8.1 mph - N/A   Mostly Cloudy
3:50 PM 55.4 °F 50.0 °F 82% 29.89 in 6.2 mi West 6.9 mph - N/A   Mostly Cloudy
4:20 PM 55.4 °F 50.0 °F 82% 29.89 in 6.2 mi West 5.8 mph - N/A   Mostly Cloudy
4:50 PM 55.4 °F 50.0 °F 82% 29.89 in 6.2 mi West 6.9 mph - N/A   Mostly Cloudy
5:20 PM 55.4 °F 50.0 °F 82% 29.89 in 6.2 mi West 5.8 mph - N/A   Mostly Cloudy
5:50 PM 55.4 °F 50.0 °F 82% 29.89 in 6.2 mi WSW 6.9 mph - N/A   Mostly Cloudy
6:20 PM 55.4 °F 50.0 °F 82% 29.89 in 6.2 mi West 6.9 mph - N/A   Mostly Cloudy
6:50 PM 55.4 °F 51.8 °F 88% 29.92 in 6.2 mi North 4.6 mph - N/A   Light Drizzle
7:20 PM 55.4 °F 51.8 °F 88% 29.89 in 6.2 mi NNW 8.1 mph - N/A   Mostly Cloudy
7:50 PM 55.4 °F 50.0 °F 82% 29.89 in 6.2 mi NNW 8.1 mph - N/A   Mostly Cloudy
8:00 PM 55 °F 51 °F 80% 29.91 in 16 mi NNW 8.9 mph - - Rain Light Drizzle
8:20 PM 55.4 °F 50.0 °F 82% 29.89 in 6.2 mi NW 5.8 mph - N/A   Mostly Cloudy
8:50 PM 53.6 °F 50.0 °F 88% 29.89 in 6.2 mi NW 8.1 mph - N/A   Mostly Cloudy
9:20 PM 53.6 °F 50.0 °F 88% 29.92 in 6.2 mi NW 8.1 mph - N/A   Mostly Cloudy
9:50 PM 53.6 °F 48.2 °F 82% 29.92 in 6.2 mi NW 6.9 mph - N/A   Mostly Cloudy
10:20 PM 53.6 °F 48.2 °F 82% 29.92 in 6.2 mi NW 6.9 mph - N/A   Mostly Cloudy
10:50 PM 53.6 °F 48.2 °F 82% 29.92 in 6.2 mi NW 5.8 mph - N/A   Mostly Cloudy
11:20 PM 53.6 °F 48.2 °F 82% 29.92 in 6.2 mi NW 6.9 mph - N/A   Mostly Cloudy
11:50 PM 53.6 °F 48.2 °F 82% 29.92 in 6.2 mi NW 8.1 mph - N/A   Mostly Cloudy